Weather History for Dublin, VA

Change the Weather History Date:

Thursday, March 7, 2013

  Actual Average (KBCB) Record (KBCB)
Temperature  
Mean Temperature 32 °F 39 °F  
Max Temperature 35 °F 50 °F 79 °F (2009)
Min Temperature 30 °F 27 °F 10 °F (1960)
Degree Days  
Heating Degree Days 32 26  
Month to date heating degree days 188  
Since 1 July heating degree days 4236  
Cooling Degree Days 0 0  
Month to date cooling degree days 0  
Year to date cooling degree days 0  
Moisture  
Dew Point 26 °F    
Average Humidity 75    
Maximum Humidity 86    
Minimum Humidity 60    
Precipitation  
Precipitation 0.00 in 0.12 in 1.13 in (1967)
Month to date precipitation 0.72  
Year to date precipitation 6.61  
Snow  
Snow 0.00 in - - ()
Month to date snowfall  
Since 1 July snowfall  
Snow Depth -    
Sea Level Pressure  
Sea Level Pressure 30.19 in    
Wind  
Wind Speed 10 mph (NW)    
Max Wind Speed 15 mph    
Max Gust Speed 21 mph    
Visibility 10 miles    
Events      
T = Trace of Precipitation, MM = Missing Value Source: NWS Daily Summary

Daily Weather History Graph

Daily Weather History Graph

Search for Another Location

Airport:

Trip Planner

Search our weather history database for the weather conditions in past years. The results will help you decide how hot, cold, wet, or windy it might be!

Date:

Astronomy

Mar. 07, 2013 Rise Set
Actual Time 6:44 AM EST 6:22 PM EST
Civil Twilight 6:19 AM EST 6:48 PM EST
Nautical Twilight 5:48 AM EST 7:18 PM EST
Astronomical Twilight 5:18 AM EST 7:49 PM EST
Moon 3:38 AM EST (3/7) 2:13 PM EST (3/7)
Length of Visible Light 12h 29m
Length of Day
11h 37m
Waning Crescent, 20% of the Moon is Illuminated
Mar 7
Waning Crescent
Mar 11
New
Mar 19
First Quarter
Mar 27
Full
Apr 3
Last Quarter

Hourly Weather History & Observations

Time (EST) Temp. Windchill Dew Point Humidity Pressure Visibility Wind Dir Wind Speed Gust Speed Precip Events Conditions
12:15 AM 32.0 °F 24.2 °F 26.6 °F 80% 30.09 in 10.0 mi WNW 9.2 mph - N/A   Overcast
12:35 AM 32.0 °F 24.2 °F 26.6 °F 80% 30.09 in 10.0 mi WNW 9.2 mph - N/A   Overcast
12:55 AM 32.0 °F 23.6 °F 26.6 °F 80% 30.09 in 10.0 mi WNW 10.4 mph 16.1 mph N/A   Overcast
1:15 AM 32.0 °F 25.6 °F 26.6 °F 80% 30.09 in 10.0 mi WNW 6.9 mph - N/A   Overcast
1:35 AM 33.8 °F 26.4 °F 26.6 °F 75% 30.09 in 10.0 mi WNW 9.2 mph - N/A   Overcast
1:55 AM 32.0 °F 24.8 °F 26.6 °F 80% 30.10 in 10.0 mi NW 8.1 mph - N/A   Overcast
2:15 AM 33.8 °F 25.3 °F 26.6 °F 75% 30.09 in 10.0 mi NW 11.5 mph 16.1 mph N/A   Overcast
2:35 AM 32.0 °F 22.1 °F 26.6 °F 80% 30.09 in 10.0 mi NW 13.8 mph - N/A   Overcast
2:55 AM 32.0 °F 22.1 °F 26.6 °F 80% 30.09 in 10.0 mi NW 13.8 mph 18.4 mph N/A   Overcast
3:15 AM 32.0 °F 22.5 °F 26.6 °F 80% 30.09 in 10.0 mi WNW 12.7 mph 18.4 mph N/A   Overcast
3:35 AM 32.0 °F 24.8 °F 26.6 °F 80% 30.10 in 10.0 mi WNW 8.1 mph 16.1 mph N/A   Overcast
3:55 AM 32.0 °F 22.1 °F 26.6 °F 80% 30.10 in 10.0 mi NW 13.8 mph 20.7 mph N/A   Overcast
4:15 AM 32.0 °F 24.8 °F 26.6 °F 80% 30.11 in 10.0 mi NW 8.1 mph - N/A   Overcast
4:35 AM 32.0 °F 25.6 °F 26.6 °F 80% 30.12 in 10.0 mi WNW 6.9 mph - N/A   Overcast
4:55 AM 32.0 °F 24.8 °F 26.6 °F 80% 30.13 in 10.0 mi West 8.1 mph - N/A   Overcast
5:15 AM 30.2 °F 24.3 °F 26.6 °F 86% 30.14 in 10.0 mi West 5.8 mph - N/A   Overcast
5:35 AM 30.2 °F 24.3 °F 26.6 °F 86% 30.15 in 10.0 mi West 5.8 mph - N/A   Overcast
5:55 AM 30.2 °F 22.6 °F 26.6 °F 86% 30.15 in 10.0 mi West 8.1 mph - N/A   Overcast
6:15 AM 30.2 °F 22.6 °F 26.6 °F 86% 30.16 in 10.0 mi West 8.1 mph - N/A   Overcast
6:35 AM 30.2 °F 20.8 °F 26.6 °F 86% 30.16 in 10.0 mi West 11.5 mph - N/A   Overcast
6:55 AM 30.2 °F 20.2 °F 26.6 °F 86% 30.17 in 10.0 mi West 12.7 mph 17.3 mph N/A   Overcast
7:15 AM 30.2 °F 20.2 °F 26.6 °F 86% 30.18 in 10.0 mi WNW 12.7 mph - N/A   Overcast
7:35 AM 30.2 °F 20.2 °F 26.6 °F 86% 30.19 in 10.0 mi WNW 12.7 mph - N/A   Overcast
7:55 AM 30.2 °F 20.8 °F 26.6 °F 86% 30.19 in 10.0 mi WNW 11.5 mph - N/A   Overcast
8:15 AM 30.2 °F 19.8 °F 26.6 °F 86% 30.19 in 10.0 mi WNW 13.8 mph - N/A   Overcast
8:35 AM 30.2 °F 19.3 °F 26.6 °F 86% 30.19 in 10.0 mi West 15.0 mph - N/A   Mostly Cloudy
8:55 AM 32.0 °F 22.1 °F 26.6 °F 80% 30.20 in 10.0 mi West 13.8 mph - N/A   Scattered Clouds
9:15 AM 33.8 °F 24.3 °F 26.6 °F 75% 30.20 in 10.0 mi WNW 13.8 mph - N/A   Scattered Clouds
9:35 AM 33.8 °F 24.3 °F 26.6 °F 75% 30.20 in 10.0 mi WNW 13.8 mph - N/A   Scattered Clouds
9:55 AM 33.8 °F 25.8 °F 26.6 °F 75% 30.21 in 10.0 mi NW 10.4 mph - N/A   Mostly Cloudy
10:15 AM 33.8 °F 25.3 °F 26.6 °F 75% 30.21 in 10.0 mi WNW 11.5 mph - N/A   Overcast
10:35 AM 33.8 °F 26.4 °F 26.6 °F 75% 30.21 in 10.0 mi WNW 9.2 mph - N/A   Overcast
10:55 AM 33.8 °F 27.0 °F 26.6 °F 75% 30.21 in 10.0 mi WNW 8.1 mph - N/A   Overcast
11:15 AM 33.8 °F 25.8 °F 26.6 °F 75% 30.22 in 10.0 mi WNW 10.4 mph 18.4 mph N/A   Overcast
11:35 AM 33.8 °F 26.4 °F 26.6 °F 75% 30.22 in 10.0 mi NW 9.2 mph 17.3 mph N/A   Overcast
11:55 AM 33.8 °F 25.8 °F 26.6 °F 75% 30.22 in 10.0 mi WNW 10.4 mph 16.1 mph N/A   Overcast
12:15 PM 33.8 °F 27.0 °F 26.6 °F 75% 30.22 in 10.0 mi WNW 8.1 mph - N/A   Overcast
12:35 PM 33.8 °F 27.0 °F 26.6 °F 75% 30.22 in 10.0 mi WNW 8.1 mph - N/A   Overcast
12:55 PM 33.8 °F 27.0 °F 26.6 °F 75% 30.22 in 10.0 mi NW 8.1 mph - N/A   Overcast
1:15 PM 33.8 °F 27.0 °F 26.6 °F 75% 30.21 in 10.0 mi NW 8.1 mph - N/A   Overcast
1:35 PM 33.8 °F 29.6 °F 26.6 °F 75% 30.21 in 10.0 mi West 4.6 mph - N/A   Overcast
1:55 PM 33.8 °F 30.8 °F 26.6 °F 75% 30.20 in 10.0 mi WNW 3.5 mph - N/A   Overcast
2:15 PM 33.8 °F 27.7 °F 26.6 °F 75% 30.20 in 10.0 mi NW 6.9 mph - N/A   Overcast
2:35 PM 33.8 °F 27.7 °F 26.6 °F 75% 30.20 in 10.0 mi North 6.9 mph - N/A   Overcast
2:55 PM 35.6 °F 31.7 °F 26.6 °F 70% 30.20 in 10.0 mi NW 4.6 mph - N/A   Overcast
3:15 PM 35.6 °F 31.7 °F 24.8 °F 65% 30.20 in 10.0 mi NW 4.6 mph 17.3 mph N/A   Overcast
3:35 PM 35.6 °F 29.2 °F 24.8 °F 65% 30.20 in 10.0 mi NNW 8.1 mph - N/A   Overcast
3:55 PM 35.6 °F 28.0 °F 24.8 °F 65% 30.21 in 10.0 mi NW 10.4 mph 19.6 mph N/A   Overcast
4:15 PM 35.6 °F 29.2 °F 24.8 °F 65% 30.20 in 10.0 mi WNW 8.1 mph - N/A   Overcast
4:35 PM 33.8 °F 24.8 °F 24.8 °F 70% 30.21 in 10.0 mi NW 12.7 mph 18.4 mph N/A   Overcast
4:55 PM 33.8 °F 25.3 °F 24.8 °F 70% 30.21 in 10.0 mi NW 11.5 mph 18.4 mph N/A   Overcast
5:15 PM 33.8 °F 27.0 °F 24.8 °F 70% 30.21 in 10.0 mi NW 8.1 mph - N/A   Overcast
5:35 PM 33.8 °F 27.7 °F 24.8 °F 70% 30.22 in 10.0 mi NW 6.9 mph 16.1 mph N/A   Overcast
5:55 PM 33.8 °F 28.6 °F 24.8 °F 70% 30.22 in 10.0 mi NNW 5.8 mph - N/A   Overcast
6:15 PM 33.8 °F 25.3 °F 23.0 °F 65% 30.24 in 10.0 mi NW 11.5 mph - N/A   Mostly Cloudy
6:35 PM 33.8 °F 27.7 °F 23.0 °F 65% 30.23 in 10.0 mi NW 6.9 mph 17.3 mph N/A   Mostly Cloudy
6:55 PM 33.8 °F 25.3 °F 23.0 °F 65% 30.24 in 10.0 mi NW 11.5 mph 18.4 mph N/A   Mostly Cloudy
8:35 PM 33.8 °F 27.0 °F 23.0 °F 65% 30.25 in 10.0 mi NNW 8.1 mph - N/A   Overcast
8:55 PM 33.8 °F 27.7 °F 23.0 °F 65% 30.25 in 10.0 mi North 6.9 mph - N/A   Overcast
9:15 PM 33.8 °F 27.0 °F 23.0 °F 65% 30.25 in 10.0 mi WNW 8.1 mph - N/A   Mostly Cloudy
9:35 PM 33.8 °F 27.0 °F 24.8 °F 70% 30.25 in 10.0 mi WNW 8.1 mph - N/A   Overcast
9:55 PM 33.8 °F 27.0 °F 24.8 °F 70% 30.25 in 10.0 mi NW 8.1 mph - N/A   Overcast
10:15 PM 33.8 °F 25.8 °F 24.8 °F 70% 30.25 in 10.0 mi NW 10.4 mph 17.3 mph N/A   Overcast
10:35 PM 33.8 °F 28.6 °F 24.8 °F 70% 30.25 in 10.0 mi NNW 5.8 mph - N/A   Overcast
10:55 PM 33.8 °F 25.8 °F 23.0 °F 65% 30.25 in 10.0 mi NW 10.4 mph - N/A   Overcast
11:15 PM 33.8 °F 28.6 °F 21.2 °F 60% 30.25 in 10.0 mi WNW 5.8 mph - N/A   Mostly Cloudy
11:35 PM 33.8 °F 26.4 °F 21.2 °F 60% 30.25 in 10.0 mi NW 9.2 mph - N/A   Scattered Clouds
11:55 PM 33.8 °F 25.3 °F 23.0 °F 65% 30.24 in 10.0 mi NW 11.5 mph 19.6 mph N/A   Clear